Location: ????????
(56.1167°N, 38.6333°E)
Time: 07:48:33
(UTC+00:00)

USA 281 - Pass Details

Date: 18 November 2025
Orbit: 1079 x 1080 km, 106.0° (Epoch: 11 December)

Event Time Altitude Azimuth Distance (km) Brightness Sun altitude
Exits shadow 14:37:45 12° 92° (E) 2,745 4.8 -11.5°
Maximum altitude 14:42:51 32° 35° (NE) 1,757 3.9 -12.2°
Drops below altitude 10° 14:48:32 10° 335° (NNW) 2,933 5.6 -13.0°
Sets 14:51:18 0° 327° (NNW) 3,891 6.4 -13.4°
